Hourly Observations for June 13, 2018

Temp ( °F °C ) Dew Point ( °F °C ) Humidity (%) Winds ( mph kmh ) Pressure ( in mb ) Visibility ( mi km ) Precip ( " mm )
12:53 am 00:53 Mostly Clear 71 21.7 69 20.6 94 94 SSW 6 9 29.91 1013 10 16.09344 0 0
1:53 am 01:53 Clear 71 21.7 69 20.6 94 94 Calm 29.91 1013 10 16.09344 0 0
2:53 am 02:53 Partly Cloudy 71 21.7 69 20.6 94 94 Calm 29.91 1013 10 16.09344 0 0
3:53 am 03:53 Clear 71 21.7 69 20.6 94 94 SW 5 7 29.91 1013 9 14.484096 0 0
4:53 am 04:53 Clear 70 21.1 68 20 93 93 Calm 29.91 1013 7 11.265408 0 0
5:53 am 05:53 Sunny 70 21.1 68 20 93 93 Calm 29.94 1014 7 11.265408 0 0
6:53 am 06:53 Partly Cloudy 72 22.2 69 20.6 91 91 SW 6 9 29.94 1014 9 14.484096 0 0
7:53 am 07:53 Partly Cloudy 75 23.9 71 21.7 88 88 SW 5 7 29.97 1015 10 16.09344 0 0
8:44 am 08:44 Mostly Cloudy 76 24.4 71 21.7 85 85 SW 7 11 30 1016 10 16.09344 0 0
8:53 am 08:53 Mostly Cloudy 77 25 71 21.7 82 82 W 8 13 29.97 1015 10 16.09344 0 0
9:16 am 09:16 Partly Cloudy 78 25.6 72 22.2 82 82 WSW 8 13 30 1016 10 16.09344 0 0
9:53 am 09:53 Mostly Sunny 80 26.7 72 22.2 76 76 W 7 11 29.97 1015 10 16.09344 0 0
10:53 am 10:53 Sunny 83 28.3 73 22.8 72 72 Calm 29.97 1015 10 16.09344 0 0
11:53 am 11:53 Mostly Sunny 86 30 73 22.8 65 65 Calm 29.97 1015 10 16.09344 0 0
12:53 pm 12:53 Mostly Cloudy 86 30 72 22.2 63 63 S 5 7 29.97 1015 10 16.09344 0 0
1:53 pm 13:53 Cloudy 88 31.1 71 21.7 57 57 S 3 6 29.94 1014 10 16.09344 0 0
2:53 pm 14:53 Mostly Cloudy 89 31.7 72 22.2 57 57 Calm 29.94 1014 10 16.09344 0 0
3:53 pm 15:53 Mostly Sunny 89 31.7 73 22.8 59 59 W 6 9 29.94 1014 10 16.09344 0 0
4:53 pm 16:53 Partly Cloudy 88 31.1 73 22.8 61 61 SW 3 6 29.91 1013 10 16.09344 0 0
5:53 pm 17:53 Sunny 89 31.7 73 22.8 59 59 N 3 6 29.91 1013 10 16.09344 0 0
6:53 pm 18:53 Sunny 88 31.1 73 22.8 61 61 W 3 6 29.91 1013 10 16.09344 0 0
7:53 pm 19:53 Sunny 82 27.8 74 23.3 77 77 SW 3 6 29.91 1013 10 16.09344 0 0
8:53 pm 20:53 Clear 79 26.1 75 23.9 88 88 Calm 29.94 1014 10 16.09344 0 0
9:53 pm 21:53 Clear 78 25.6 75 23.9 90 90 SSE 3 6 29.94 1014 9 14.484096 0 0
10:53 pm 22:53 Clear 79 26.1 75 23.9 88 88 S 6 9 29.97 1015 10 16.09344 0 0
11:53 pm 23:53 Clear 79 26.1 74 23.3 85 85 S 7 11 29.97 1015 10 16.09344 0 0

Powered by AerisWeather

Site Deisgn Provided by Innovations Branding House, Paducah, KY